Regional Weather Roundup
Issued by NWS State College, PA

Home | Current Version | Previous Version | Graphics & Text | Print | Product List | Glossary Off
Versions: 1 2 3 4 5 6 7 8 9 10 11 12 13 14 15 16 17 18 19 20 21 22 23 24 25 26 27 28 29 30 31 32 33 34 35 36 37 38 39 40 41 42 43 44 45 46 47 48 49 50

000
ASUS41 KCTP 282303
RWRCTP

REGIONAL WEATHER ROUNDUP
NATIONAL WEATHER SERVICE STATE COLLEGE PA
700 PM EDT SUN MAY 28 2017

Note: "fair" indicates few or no clouds below 12,000 feet with no
significant weather and/or obstructions to visibility.

* = STATION THAT DOES NOT REPORT PRECIPITATION /E.G. RAIN...SNOW...ETC/
    THUNDER OR FOG.

PAZ002>004-007>009-013>016-020>023-029>032-290000-
WESTERN PENNSYLVANIA

CITY           SKY/WX    TMP DP  RH WIND       PRES   REMARKS
ERIE           CLOUDY    70  60  70 S8        29.70F
MEADVILLE      PTSUNNY   64  61  90 SE3       29.75R
FRANKLIN*      PTSUNNY   61  55  82 SE6       29.78R
NEW CASTLE     MOCLDY    77  64  64 SW6       29.72S
BEAVER COUNTY  NOT AVBL
BUTLER*        PTSUNNY   75  64  69 SW6       29.74S
PITTSBURGH INT MOSUNNY   77  63  61 SW9       29.74S
PITTSBURGH     PTSUNNY   76  63  64 SW9       29.74F
INDIANA*       MOSUNNY   66  63  88 S13G20    29.81S
LATROBE        PTSUNNY   68  66  94 SE9       29.78S
WASHINGTON CO* MOSUNNY   73  63  68 SW12G17   29.78S
$$

PAZ004>006-010>012-017>019-024>028-033>037-041-042-045-046-049>053-290000-
CENTRAL PENNSYLVANIA

CITY           SKY/WX    TMP DP  RH WIND       PRES   REMARKS
BRADFORD       RAIN      61  61 100 SW3       29.87R FOG
DUBOIS         TSTM      62  59  90 NE8       29.83R VSB 1
CLEARFIELD     LGT RAIN  63  62  97 E6        29.82F
JOHNSTOWN      MOSUNNY   62  60  93 SE12      29.83F
ALTOONA        RAIN      64  62  93 SE8       29.84F FOG
STATE COLLEGE  DRIZZLE   64  61  88 CALM      29.84S
WILLIAMSPORT   CLOUDY    68  62  81 SE7       29.83R
SELINSGROVE    CLOUDY    66  65  96 CALM      29.85S FOG
FT INDIANTOWN  CLOUDY    67  64  92 S3        29.87R
CAPITAL CITY   CLOUDY    68  60  75 E7        29.86R
HARRISBURG     CLOUDY    67  62  84 SE8       29.85S
YORK           LGT RAIN  65  63  93 CALM      29.86R
$$

PAZ038>040-043-044-047-048-054-055-060>062-067>071-290000-
EASTERN PENNSYLVANIA

CITY           SKY/WX    TMP DP  RH WIND       PRES   REMARKS
SCRANTON       LGT RAIN  69  58  67 SE8       29.86S
MOUNT POCONO     N/A     63  56  78 SE9       29.92R
ALLENTOWN      CLOUDY    72  56  57 SE7       29.88R
QUAKERTOWN*    CLOUDY    68  59  73 SE5       29.89S
READING        CLOUDY    68  66  93 SE3       29.86S
LANCASTER      LGT RAIN  67  63  87 SE8       29.86S
COATESVILLE    LGT RAIN  64  63  94 CALM      29.89S
POTTSTOWN      LGT RAIN  67  59  75 VRB3      29.89R
BLUE BELL      CLOUDY    66  54  63 SE6       29.90R
DOYLESTOWN     CLOUDY    68  56  65 CALM      29.89R
WILLOW GROVE   NOT AVBL
NORTH PHILA    CLOUDY    70  55  59 SE9       29.91R
PHILADELPHIA   CLOUDY    67  56  67 E10       29.89R
$$



USA.gov is the U.S. government's official web portal to all federal, state and local government web resources and services.